Regional Weather Roundup
Issued by NWS Charleston, SC

Home | Current Version | Previous Version | Text Only | Print | Product List | Glossary On
Versions: 1 2 3 4 5 6 7 8 9 10 11 12 13 14 15 16 17 18 19 20 21 22 23 24 25 26 27 28 29 30 31 32 33 34 35 36 37 38 39 40 41 42 43 44 45 46 47 48 49 50
082
ASUS42 KCHS 200627
RWRCHS

REGIONAL WEATHER ROUNDUP
NATIONAL WEATHER SERVICE CHARLESTON SC
200 AM EDT SUN AUG 20 2017

NOTE: "FAIR" INDICATES FEW OR NO CLOUDS BELOW 12,000 FEET WITH NO
SIGNIFICANT WEATHER AND/OR OBSTRUCTIONS TO VISIBILITY.

NOT ALL STATIONS ARE QUALITY CONTROLLED. USE DATA WITH CAUTION...
ESPECIALLY DEWPOINT OBSERVATIONS.

SCZ027-030-031-034>040-042>050-200700-
...SOUTHEAST SOUTH CAROLINA...

CITY           SKY/WX    TMP DP  RH WIND       PRES   REMARKS
N CHARLESTON   PTCLDY    80  79  96 S3        29.99S
6HR MIN TEMP:  79; 6HR MAX TEMP:  84;

WATERFRONT PRK   N/A     83  81  93 CALM      29.84R HX  97
JOHNS ISLAND   FAIR      82  81  94 CALM      30.00S HX  95
PINOPOLIS        N/A     81  79  94 S5        29.93R
MONCKS CORNER  FAIR      77  75  94 CALM      30.00R FOG
SUMMERVILLE    FAIR      77  77 100 CALM      30.01R
BEAUFORT MCAS  CLEAR     82  81  96 S3        30.00R HX  95
6HR MIN TEMP:  82; 6HR MAX TEMP:  88;

BEAUFORT ARPT  FAIR      81  79  94 SW3       29.99S
HILTON HEAD IS CLEAR     82  81  94 S3        30.00F HX  95
WALTERBORO     MOCLDY    77  75  94 CALM      30.01S
ALLENDALE      NOT AVBL

...SOUTHERN MIDLANDS AND PEE DEE...

CITY           SKY/WX    TMP DP  RH WIND       PRES   REMARKS
GEORGETOWN     FAIR      77  77 100 CALM      30.01S
KINGSTREE      FAIR      73  73 100 CALM      29.99S
ORANGEBURG     PTCLDY    74  71  91 SW3       30.00S
6HR MIN TEMP:  73; 6HR MAX TEMP:  85;

BARNWELL       FAIR      75  73  94 CALM      30.00S
AIKEN          FAIR      73  68  83 CALM      30.04S
MANNING        FAIR      77  77 100 W18G25    30.00S
COLUMBIA       CLEAR     78  69  73 W6        29.98S
6HR MIN TEMP:  78; 6HR MAX TEMP:  92; 6HR PCP:  0.02;

SUMTER         CLEAR     77  67  70 CALM      29.97S
6HR MIN TEMP:  76; 6HR MAX TEMP:  87;

FLORENCE       PTCLDY    78  77  96 SW6       29.99S
6HR MIN TEMP:  77; 6HR MAX TEMP:  87;

MYRTLE BEACH   NOT AVBL
N MYRTLE BEACH MOCLDY    81  80  97 SW6       29.99S HX  91
6HR MIN TEMP:  81; 6HR MAX TEMP:  83;


$$

GAZ063-065-086>088-099>101-113>116-118-119-134>141-150-200700-
...SOUTHEAST GEORGIA...

CITY           SKY/WX    TMP DP  RH WIND       PRES   REMARKS
SAVANNAH ARPT  CLEAR     80  76  87 CALM      30.00S
6HR MIN TEMP:  78; 6HR MAX TEMP:  86;

HUNTER AAF     RAIN      79  77  94 CALM      29.98S
6HR MIN TEMP:  79; 6HR MAX TEMP:  85; 6HR PCP: TRACE;

FORT STEWART   PTCLDY    78  74  87 S3        29.98S
6HR MIN TEMP:  78; 6HR MAX TEMP:  87;

STATESBORO     MOCLDY    76  74  93 CALM      29.99F
SYLVANIA       MOCLDY    74  74 100 CALM      30.01S
CLAXTON        FAIR      76  75  96 CALM      29.99F

...CSRA...CENTRAL AND FAR SOUTHEAST GEORGIA...

CITY           SKY/WX    TMP DP  RH WIND       PRES   REMARKS
THOMSON        CLEAR     71  70  95 CALM      30.06F
AUGUSTA-BUSH   PTCLDY    75  73  93 CALM      29.99S
6HR MIN TEMP:  74; 6HR MAX TEMP:  86;

AUGUSTA-DANIEL CLEAR     81  66  60 N3        30.01S
SWAINSBORO     FAIR      72  72 100 CALM      30.01S
VIDALIA        MOCLDY    79  72  78 CALM      30.00S
EASTMAN        FAIR      72  72 100 CALM      30.02F
HAZLEHURST     FAIR      77  68  74 CALM      29.99S
ALMA           CLOUDY    77  74  90 CALM      30.00S
6HR MIN TEMP:  76; 6HR MAX TEMP:  89;

WAYCROSS       PTCLDY    79  75  89 W3        29.99F
JESUP          CLOUDY    81  73  78 CALM      30.00S
BAXLEY         FAIR      73  73 100 CALM      29.99F
BRUNSWICK      MOCLDY    79  73  83 CALM      30.00S
SAINT SIMONS   MOCLDY    84  76  76 S5        29.99S HX  93
6HR MIN TEMP:  83; 6HR MAX TEMP:  85;


$$

SCZ027-028-034-036>038-045-046-048>050-GAZ119-141-200700-
...LAKE AND SUPPLEMENTAL COASTAL OBSERVATIONS...

STATION/POSITION TIME  TEMP    WIND        PRES    WAVE   SWELL
                       AIR SEA DIR/SP/G            HT/PER HT/PER/DIR
                 (UTC) (F)     (DEG/KT/KT) (MB)    (FT/S) (FT/S/D)
WINYAH BAY       0545   81     250/  2     1016.0S
LAKE MURRAY      0520   80      CALM  /  2 1014.9
ACE BASIN NERRS  0545   80        CALM     1016.0R
FORT PULASKI     0600   83 87  280/  3/  3 1016.2
SAPELO ISLAND    0600   82        CALM     1016.0

$$

ANZ835-935-AMZ111-154-330-350-352-354-370-450-454-472-200700-
...C-MAN AND BUOY OBSERVATIONS...

STATION/POSITION TIME  TEMP    WIND        PRES    WAVE   SWELL
                       AIR SEA DIR/SP/G            HT/PER HT/PER/DIR
                 (UTC) (F)     (DEG/KT/KT) (MB)    (FT/S) (FT/S/D)
BUOY 41004       0540   84 84  210/ 12/ 14 1015.7R
BUOY 41008       0450   85 85  180/ 14/ 16 1015.4    2/ 9   2/100/ 9
FOLLY BEACH CMAN 0500   84     210/ 12/ 13 1016.2R
CAPERS NEARSHORE 0608   82 85  230/ 10/ 16 1015.6S
FRIPP NEARSHORE  0608   85     220/ 10/ 14 1015.4S


STATION/POSITION TIME  TEMP    WIND        PRES    WAVE   SWELL
                       AIR SEA DIR/SP/G            HT/PER HT/PER/DIR
                 (UTC) (F)     (DEG/KT/KT) (MB)    (FT/S) (FT/S/D)
5E ST. MARYS GA  0600      84                N/A     2/ 9
FRYING PAN BUOY  0540   84 84  210/ 14/ 16 1015.7F
BUOY 41025       0450   83 83  210/ 12/ 14 1015.5    3/ 9   2/120/ 9
CAPE LOOKOUT NC  0500   81     230/  3/  4 1015.6S
BUOY 41002       0450   83 84  180/ 12/ 14 1017.7    4/ 8   3/100/ 8
BUOY 41010       0540   82 85  150/ 17/ 21 1016.6F
ST AUGUSTINE FL  0500   81 83  220/  3/  3 1016.4S


$$




USA.gov is the U.S. government's official web portal to all federal, state and local government web resources and services.